Terug naar catalogus

KUIPER-00440

ActiefCommunicatieLEO
NORAD 68942·PAYLOAD·🇺🇸 United States

Gelanceerd Apr 30, 2026 vanaf Guiana Space Centre

Loading…

Volgende Passages (komende 24 uur)

TLE

VersSource: CelesTrak SupGP

Epoch: Sep 14, 2026, 18:05 UTC

1 68942C 26098Z   26257.75381944  .00007445  00000+0  97466-3 0  2578
2 68942  51.9037  12.1100 0000317   5.6597  53.9048 14.79919870    19

Volg KUIPER-00440 in realtime met AllMySat

Download on the App Store